Need To Know Information

  • Ocean Aviation Flight Academy
  • Runway Strength
  • Airfield Lighting
  • Rental Cars
  • Drone Operations

Why Delaware Coastal

  • Tax-Free Shopping
  • Convenient Fuel Stop
  • Beaches
  • Top Attractions

Current Weather Conditions

KGED 210454Z AUTO 01008KT 10SM CLR 13/01 A3001 RMK AO2 SLP162 T01280011 402060100
Wind Speed Deg 10
Wind Speed Kt 8

Current Weather Conditions

KGED 210454Z AUTO 01008KT 10SM CLR 13/01 A3001 RMK AO2 SLP162 T01280011 402060100
Wind Speed Deg 10
Wind Speed Kt 8

Current Fuel Cost

JET-A W/FSII $6.16/gal.
AVGAS $6.20/gal.

Operating Hours

08:0018:00

7 days a week

DE Location Map

Location.

Location.

Location.

  • Centrally located within driving distance of 4 major markets
  • Flight Time to: D.C. - 20 min. PHL - 22 min. NYC - 30 min.
  • Next to V-1, a busy North/South airway
  • The preferred airport for Delaware’s beaches

Facilities

  • Large corporate jet capability
  • Great pavement conditions (all under 10 years old)
  • $40 million in recent improvements
  • 5500 x 150 ft. main runway
  • 3109 x 75 ft. crosswind runway
  • Fuel & service
  • Rail access at the airport
  • Rental car access
Sussex Hangar

Hangar

Development

Opportunities

We have land available for hangar development!

Thank you for your submission.

Please correct your Name.

Please correct your Email.

Please correct your Subject.

Please correct your Message.